Location: Bonaustraße
(48.4603°N, 11.9280°E)
Time: 19:12:33
(UTC+01:00)

ISS - Visible Passes

Search period start: 01 December 2021 00:00
Search period end: 11 December 2021 00:00
Orbit: 417 x 423 km, 51.6° (Epoch: 01 December)

Date Brightness Start Highest point End Pass type
(mag) Time Alt. Az. Time Alt. Az. Time Alt. Az.
01 Dec -3.2 17:08:09 10° WNW 17:11:28 47° N 17:14:26 12° ENE visible
01 Dec -2.5 18:45:07 10° WNW 18:47:25 40° WNW 18:47:25 40° WNW visible
02 Dec -3.7 17:57:56 10° WNW 18:01:19 66° NNE 18:02:15 42° E visible
02 Dec -0.3 19:34:54 10° W 19:35:15 12° W 19:35:15 12° W visible
03 Dec -3.5 17:10:42 10° WNW 17:14:03 55° N 17:17:10 12° E visible
03 Dec -2.4 18:47:36 10° WNW 18:50:10 40° WSW 18:50:10 40° WSW visible
04 Dec -3.6 18:00:21 10° WNW 18:03:45 71° SSW 18:05:13 31° SE visible
04 Dec -0.2 19:38:05 10° W 19:38:13 11° WSW 19:38:13 11° WSW visible
05 Dec -3.8 17:13:07 10° WNW 17:16:32 85° NNE 17:19:56 10° ESE visible
05 Dec -1.6 18:50:21 10° W 18:53:04 22° SW 18:53:27 22° SSW visible
06 Dec -2.1 18:02:53 10° W 18:05:59 33° SW 18:08:54 11° SSE visible
07 Dec -2.7 17:15:32 10° WNW 17:18:50 48° SSW 17:22:07 10° SE visible
08 Dec -0.7 18:06:00 10° W 18:07:59 15° SW 18:09:57 10° S visible
09 Dec -1.0 17:18:14 10° W 17:20:55 22° SW 17:23:35 10° SSE visible
